Mora, MN

11:38 AM CDT on June 29, 2017 (GMT -0500)
Mora Municipal

Weather History for KJMR - February, 2014

Change the Weather History Date:

Saturday, February 15, 2014

  Actual Average Record
Temperature  
Mean Temperature 3 °F -  
Max Temperature 17 °F 24 °F 49 °F (1984)
Min Temperature -11 °F 2 °F -31 °F (1936)
Degree Days  
Heating Degree Days 62    
Moisture  
Dew Point 0 °F    
Average Humidity 74    
Maximum Humidity 85    
Minimum Humidity 67    
Precipitation  
Precipitation 0.00 in - - ()
Sea Level Pressure  
Sea Level Pressure 29.90 in    
Wind  
Wind Speed 1 mph (SE)    
Max Wind Speed 9 mph    
Max Gust Speed -    
Visibility 8 miles    
Events Snow    
Averages and records for this station are not official NWS values.
T = Trace of Precipitation, MM = Missing Value Source: NWS Daily Summary

Daily Weather History Graph

Daily Weather History Graph

Search for Another Location

Airport or City:

Trip Planner

Search our weather history database for the weather conditions in past years. The results will help you decide how hot, cold, wet, or windy it might be!

Date:

Astronomy

Feb. 15, 2014 Rise Set
Actual Time 7:15 AM CST 5:39 PM CST
Civil Twilight 6:44 AM CST 6:10 PM CST
Nautical Twilight 6:09 AM CST 6:45 PM CST
Astronomical Twilight 5:35 AM CST 7:19 PM CST
Moon 6:45 PM CST (2/15) 7:10 AM CST (2/15)
Length of Visible Light 11h 25m
Length of Day
10h 24m
Waxing Gibbous, 99% of the Moon is Illuminated
Feb 15
Waxing Gibbous
Feb 22
Last Quarter
Mar 1
New
Mar 8
First Quarter
Mar 16
Full

Hourly Weather History & Observations

Time (CST) Temp. Windchill Dew Point Humidity Pressure Visibility Wind Dir Wind Speed Gust Speed Precip Events Conditions
12:12 AM -7.6 °F - -13.0 °F 77% 29.98 in 10.0 mi Calm Calm - N/A   Clear
12:32 AM -9.4 °F - -14.8 °F 77% 29.97 in 10.0 mi Calm Calm - N/A   Clear
12:52 AM -7.6 °F - -13.0 °F 77% 29.98 in 10.0 mi Calm Calm - N/A   Scattered Clouds
1:12 AM -7.6 °F - -13.0 °F 77% 29.98 in 10.0 mi Calm Calm - N/A   Scattered Clouds
1:32 AM -9.4 °F - -14.8 °F 77% 29.97 in 10.0 mi Calm Calm - N/A   Scattered Clouds
1:52 AM -9.4 °F - -14.8 °F 77% 29.96 in 10.0 mi Calm Calm - N/A   Scattered Clouds
2:12 AM -7.6 °F - -13.0 °F 77% 29.95 in 10.0 mi Calm Calm - N/A   Clear
2:32 AM -9.4 °F - -16.6 °F 71% 29.94 in 10.0 mi Calm Calm - N/A   Clear
2:52 AM -9.4 °F - -14.8 °F 77% 29.94 in 10.0 mi Calm Calm - N/A   Clear
3:12 AM -9.4 °F - -14.8 °F 77% 29.93 in 10.0 mi Calm Calm - N/A   Clear
3:32 AM -9.4 °F - -14.8 °F 77% 29.92 in 10.0 mi Calm Calm - N/A   Clear
3:52 AM -9.4 °F - -16.6 °F 71% 29.92 in 10.0 mi Calm Calm - N/A   Clear
4:12 AM -7.6 °F - -14.8 °F 71% 29.92 in 10.0 mi Calm Calm - N/A   Clear
4:32 AM -9.4 °F - -16.6 °F 71% 29.91 in 10.0 mi Calm Calm - N/A   Clear
4:52 AM -11.2 °F - -16.6 °F 77% 29.91 in 10.0 mi Calm Calm - N/A   Clear
5:12 AM -9.4 °F - -14.8 °F 77% 29.91 in 10.0 mi Calm Calm - N/A   Clear
5:32 AM -9.4 °F - -14.8 °F 77% 29.91 in 10.0 mi Calm Calm - N/A   Clear
5:52 AM -11.2 °F - -16.6 °F 77% 29.90 in 10.0 mi Calm Calm - N/A   Clear
6:12 AM -9.4 °F - -14.8 °F 77% 29.89 in 10.0 mi Calm Calm - N/A   Clear
6:32 AM -7.6 °F - -13.0 °F 77% 29.88 in 10.0 mi Calm Calm - N/A   Clear
6:52 AM -7.6 °F - -13.0 °F 77% 29.87 in 10.0 mi Calm Calm - N/A   Clear
7:12 AM -5.8 °F - -9.4 °F 84% 29.88 in 10.0 mi Calm Calm - N/A   Clear
7:32 AM -5.8 °F - -9.4 °F 84% 29.87 in 10.0 mi Calm Calm - N/A   Clear
7:52 AM -4.0 °F - -7.6 °F 85% 29.87 in 5.0 mi Calm Calm - N/A   Haze
8:12 AM -2.2 °F - -7.6 °F 78% 29.87 in 10.0 mi Calm Calm - N/A   Mostly Cloudy
8:32 AM -0.4 °F -8.3 °F -5.8 °F 78% 29.87 in 10.0 mi SE 3.5 mph - N/A   Mostly Cloudy
8:52 AM 1.4 °F -8.3 °F -4.0 °F 78% 29.86 in 10.0 mi SE 4.6 mph - N/A   Mostly Cloudy
9:12 AM 3.2 °F -4.2 °F -0.4 °F 85% 29.86 in 10.0 mi SE 3.5 mph - N/A   Mostly Cloudy
9:32 AM 6.8 °F -3.5 °F 1.4 °F 79% 29.85 in 10.0 mi SSE 5.8 mph - N/A   Mostly Cloudy
9:52 AM 6.8 °F -3.5 °F 1.4 °F 79% 29.85 in 10.0 mi SSE 5.8 mph - N/A   Mostly Cloudy
10:12 AM 8.6 °F 0.1 °F 1.4 °F 73% 29.84 in 10.0 mi SE 4.6 mph - N/A   Overcast
10:32 AM 12.2 °F 1.7 °F 3.2 °F 67% 29.82 in 7.0 mi SSE 6.9 mph - N/A Snow Light Snow
10:52 AM 12.2 °F 2.9 °F 3.2 °F 67% 29.82 in 5.0 mi SSE 5.8 mph - N/A Snow Light Snow
11:12 AM 12.2 °F 2.9 °F 3.2 °F 67% 29.83 in 10.0 mi SSE 5.8 mph - N/A   Overcast
11:32 AM 14.0 °F 6.5 °F 5.0 °F 67% 29.82 in 4.0 mi SE 4.6 mph - N/A Snow Light Snow
11:52 AM 14.0 °F 6.5 °F 5.0 °F 67% 29.82 in 7.0 mi SSE 4.6 mph - N/A Snow Light Snow
12:12 PM 14.0 °F 5.1 °F 5.0 °F 67% 29.82 in 7.0 mi SSE 5.8 mph - N/A Snow Light Snow
12:32 PM 14.0 °F 3.9 °F 5.0 °F 67% 29.81 in 10.0 mi SSE 6.9 mph - N/A   Overcast
12:52 PM 15.8 °F 4.2 °F 6.8 °F 68% 29.79 in 5.0 mi SE 9.2 mph - N/A Snow Light Snow
1:12 PM 17.6 °F 10.7 °F 8.6 °F 68% 29.79 in 5.0 mi SSE 4.6 mph - N/A Snow Light Snow
1:32 PM 17.6 °F 12.3 °F 8.6 °F 68% 29.79 in 5.0 mi SE 3.5 mph - N/A Snow Light Snow
1:52 PM 17.6 °F 10.7 °F 8.6 °F 68% 29.80 in 5.0 mi SE 4.6 mph - N/A Snow Light Snow
2:12 PM 17.6 °F 10.7 °F 10.4 °F 73% 29.80 in 7.0 mi SSE 4.6 mph - N/A Snow Light Snow
2:32 PM 17.6 °F 12.3 °F 10.4 °F 73% 29.81 in 4.0 mi South 3.5 mph - N/A Snow Light Snow
2:52 PM 17.6 °F - 10.4 °F 73% 29.82 in 2.5 mi Calm Calm - N/A Snow Light Snow
3:12 PM 17.6 °F - 10.4 °F 73% 29.82 in 7.0 mi Calm Calm - N/A Snow Light Snow
3:32 PM 17.6 °F - 10.4 °F 73% 29.83 in 3.0 mi Calm Calm - N/A Snow Light Snow
3:52 PM 17.6 °F - 10.4 °F 73% 29.85 in 2.5 mi Calm Calm - N/A Snow Light Snow
4:12 PM 17.6 °F - 10.4 °F 73% 29.85 in 3.0 mi Calm Calm - N/A Snow Light Snow
4:32 PM 17.6 °F - 10.4 °F 73% 29.87 in 4.0 mi Calm Calm - N/A Snow Light Snow
4:52 PM 17.6 °F - 10.4 °F 73% 29.88 in 4.0 mi Calm Calm - N/A Snow Light Snow
5:12 PM 17.6 °F - 10.4 °F 73% 29.89 in 5.0 mi Calm Calm - N/A Snow Light Snow
5:32 PM 17.6 °F - 10.4 °F 73% 29.90 in 10.0 mi Calm Calm - N/A   Overcast
5:52 PM 17.6 °F - 10.4 °F 73% 29.91 in 10.0 mi Calm Calm - N/A Snow Light Snow
6:12 PM 17.6 °F - 10.4 °F 73% 29.92 in 10.0 mi Calm Calm - N/A Snow Light Snow
6:32 PM 17.6 °F - 10.4 °F 73% 29.92 in 10.0 mi Calm Calm - N/A Snow Light Snow
6:52 PM 17.6 °F - 10.4 °F 73% 29.94 in 10.0 mi Calm Calm - N/A Snow Light Snow
7:12 PM 17.6 °F - 10.4 °F 73% 29.96 in 10.0 mi Calm Calm - N/A   Overcast
7:32 PM 17.6 °F - 10.4 °F 73% 29.96 in 10.0 mi Calm Calm - N/A   Overcast
7:52 PM 17.6 °F - 10.4 °F 73% 29.97 in 10.0 mi Calm Calm - N/A   Overcast
8:12 PM 17.6 °F - 10.4 °F 73% 29.97 in 10.0 mi Calm Calm - N/A   Overcast
8:32 PM 17.6 °F 12.3 °F 10.4 °F 73% 29.98 in 10.0 mi North 3.5 mph - N/A   Overcast
8:52 PM 17.6 °F 10.7 °F 10.4 °F 73% 29.99 in 10.0 mi North 4.6 mph - N/A   Overcast
9:12 PM 17.6 °F 9.3 °F 10.4 °F 73% 29.99 in 10.0 mi NNW 5.8 mph - N/A   Overcast
9:32 PM 17.6 °F 10.7 °F 10.4 °F 73% 30.00 in 10.0 mi North 4.6 mph - N/A   Overcast
9:52 PM 17.6 °F 10.7 °F 10.4 °F 73% 30.00 in 10.0 mi North 4.6 mph - N/A   Overcast
10:12 PM 17.6 °F 10.7 °F 10.4 °F 73% 30.01 in 10.0 mi North 4.6 mph - N/A Snow Light Snow
10:32 PM 17.6 °F 9.3 °F 10.4 °F 73% 30.02 in 10.0 mi North 5.8 mph - N/A   Overcast
10:52 PM 15.8 °F 7.2 °F 10.4 °F 79% 30.04 in 10.0 mi NNW 5.8 mph - N/A   Overcast
11:12 PM 14.0 °F 5.1 °F 8.6 °F 79% 30.05 in 7.0 mi NNW 5.8 mph - N/A Snow Light Snow
11:32 PM 14.0 °F 5.1 °F 8.6 °F 79% 30.06 in 7.0 mi NNW 5.8 mph - N/A Snow Light Snow
11:52 PM 14.0 °F 2.0 °F 8.6 °F 79% 30.07 in 7.0 mi NW 9.2 mph - N/A Snow Light Snow